sat.trackr.live / text

‹ back to catalog

STARLINK-5577

NORAD 55751 · 2023-028L

PAYLOAD ACTIVE UNKNOWN

§ Identity

Operator
Country
US
Launch date
2023-03-03
Launch site
AFWTR
Launch vehicle
Mass (kg)
RCS (m²)

Purposes: comms

External: N2YO · Heavens-Above · Gunter

§ Orbital elements

Epoch: 2026-09-20T22:00:03.000096Z

Period
95.76 min
Inclination
70.0019°
Eccentricity
0.0005985
Mean motion
15.03830064 rev/d
Perigee alt
550.9 km
Apogee alt
559.2 km
Semi-major
6,933.2 km
B*
5.1528e-3
RAAN
112.2802°
Arg perigee
291.8122°
Mean anomaly
10.8182°
Rev number
571

§ Raw data

STARLINK-55771 55751U 23028L   26263.91670139  .00071663  00000+0  51528-2 0  99982 55751  70.0019 112.2802 0005985 291.8122  10.8182 15.03830064  5713

JSON: /api/v1/satellites/55751 · /tle

For live sub-satellite position, see the globe view (requires WebGL).

§ Visibility from observer

Set your observer location to see the next 7 days of passes ≥ 10°. The values pass through the URL so the page stays shareable.

No JS? Fill the form by hand. The geolocation button needs JavaScript.